Timeline UpdatesTrip UpdatesNews PostsPvt Posts♥♥Travel TipsAdmin PostsConv PostsFollowed PostsChat RequestsBlog PostsPNR Posts

Disclaimer
Search
 
 
Wed Oct 22, 2014 15:09:49 ISTHomeTrainsΣChainsAtlasPNRForumGalleryNewsFAQTripsMembersLoginFeedback
No Recent News for this Train
Other Trains in the News **new
Latest...
.
Thu Feb 21, 2013 (12:59PM)
⇐ Return Journey: Train# 15904

15903/Dibrugarh-Chandigarh Weekly Express

Time-Table HAS CHANGED.
Sep 02 2014 (12:29AM)
Change Departure Station:
Change Arrival Station:
Post a Train Travel TipPost a Train Travel Tip **new
Post a Comment/Question/Picture/VideoPost a Comment/Question/Picture/Video
Pantry/Catering
✓ Pantry Car Avbl
✓ Catering Avbl
RSA - Rake Sharing
.
Rake/Coach Composition
LOCO-SLR-GS-GS-S1-S2-S3-S4-S5-S6-S7-S8-S9-S10-S11-S12-S13-PC-A1-B1-B2-B3-B4-GS-SLR
Loco
NGC WDM3a
News    PNR    Forum    Time-Table    Availability    Fare Chart    Map    Arr/Dep History    Trips    Gallery    ΣChains    X/O    Timeline    
Travel Time: 12h 5m    8 halts    Distance: 605 km    Avg Speed: 50 km/hr
Type: Mail/Express
Zone: NFR/Northeast Frontier
Departs @ 08:40 (Avg 56m late)
Platform# 1
 M     
Dibrugarh/DBRG 
Arrives @ 20:45 (Avg 2h 17m late)
Platform# ???
 M     
Rangiya Junction/RNY 

8 halts. 87 intermediate Stations between Dibrugarh and Rangiya Junction

Hide intermediate Stations  Show Old Time-Table

#TrkCodeStation NameX/OArrivesAvgDepartsAvgHaltPFDay#KmSpeedElevZoneAddress
1|--|DBRGDibrugarh (4)»  -08:40+56110.039108mNFRDibrugarh 786003, Assam
1.1|--|LHLLahoal  08:51-08:51-  16.9 39112mNFRA T Rd, Assam
1.2|--|DKMDikomX  09:03-09:03-  115.1 39115mNFRA T Rd, Assam
1.3|--|CHBChabua (1)  09:18-09:18-  124.7 39116mNFRChabua, Assam
1.4|--|PNTPanitola  09:32-09:32-  133.8 39122mNFRA T Rd, Assam
2|--|NTSKNew Tinsukia Junction (3)  09:45+5009:55+5210m--142.070124mNFRDist: Tinsukia, Assam
2.1|--|SPGNSripuriagaon  09:58-09:58-  145.9 70120mNFRSripuria Junction, Assam
2.2|--|CGFCharali  10:04-10:04-  152.0 70125mNFRMadhubon to Naoholia Rd, Assam
2.3|--|BDTBordubi Road  10:06-10:06-  154.5 70123mNFRMadhubon to Naoholia Rd, Assam
2.4|--|DJGDuliajan  10:09-10:09-  158.3 70123mNFRDuliajan, Assam
2.5|--|NHKNaharkatiyaX  10:17-10:17-  167.6 70121mNFRNaharkatiya, Assam
2.6|--|BTZBalimara  10:22-10:22-  173.4 70122mNFRBalimara, Assam
2.7|--|NAMNamrup (2)  10:26-10:26-  178.5 70123mNFRBorhat, Assam
2.8|--|BFDBorhat  10:31-10:31-  183.8 70118mNFRNahar Rd, Assam
2.9|--|BRNRBaruanagar  10:35-10:35-  188.8 70115mNFRDeopani Habi, Assam
2.10|--|SPKSapekhati  10:42-10:42-  196.7 70112mNFRMoran to Naharkatiya Rd, Assam
2.11|--|LPTALongpatia  10:48-10:48-  1104.0 70109mNFRLongpatia, Assam
2.12|--|BOJBhojo  10:54-10:54-  1110.6 70107mNFRBhojo Railway Station, Assam
2.13|--|SFRSafrai  11:03-11:03-  1120.7 70101mNFRBarpothar, Assam
2.14|--|LXALakswa  11:11-11:11-  1131.0 7098mNFRKukurachowa Gaon Rd, Assam
2.15|--|MUGNMahutgaon  11:17-11:17-  1138.0 7099mNFRLakwa Rajgarh Road, Assam
3|--|SLGRSimaluguri Junction (3)  11:23+1:0111:25+1:022m11144.55499mNFRSimaluguri, Assam
3.1|--|NZRNazira  11:29-11:29-  1148.2 5496mNFRNazira, Assam
3.2|--|MZAMezenga  11:34-11:34-  1152.6 5499mNFRReboti Gaon, Assam
3.3|--|NMTNamtiali  11:41-11:41-  1159.1 5498mNFRDhodor Ali, Assam
3.4|--|AGIAmguri Junction (2)O  11:54-11:54-  1170.6 54104mNFRAmguri, Assam
3.5|--|SLXSelenghatX  12:00-12:00-  1175.9 54104mNFRSelenghat, Assam
3.6|--|LHLahing  12:07-12:07-  1182.5 54109mNFRLahing, Assam
3.7|--|NCHNakachari (2)  12:13-12:13-  1188.2 54115mNFRNakachari, Assam
3.8|--|MEGMeleng  12:19-12:19-  1193.0 54121mNFRmariani, Assam
4|--|MXNMariani Junction (4)X  12:25+5812:35+5710m11198.742117mNFRDist. Jorhat Pin-785634, Assam
4.1|--|KQYKharikatiaX  12:44-12:44-  1204.6 42107mNFRDhodar Ali, Assam
4.2|--|TTBTitabar (1)  12:53-12:53-  1211.1 4298mNFRTitabor, Assam
4.3|--|CFGChakiting  13:09-13:09-  1222.4 4297mNFRChakiting, Assam
4.4|--|KXLKamarbandha Ali  13:17-13:17-  1227.7 4299mNFRK B Rd, Assam
5|--|FKGFurkating Junction (2)  13:30+4313:32+432m--1236.773 NFRK B Rd, Assam
5.1|--|OTNOating  13:35-13:35-  1240.9 73112mNFRTirual Gaon, Assam
5.2|--|JMIJamguriX  13:40-13:40-  1246.4 73104mNFROating Grant, Assam
5.3|--|BHGNBhilgaon (1)  13:46-13:46-  1253.2 73113mNFRAsian Highway 1, Assam
5.4|--|BXPBarpathar  13:52-13:52-  1261.1 73115mNFRRailway Station, Assam
5.5|--|SZRSarupathar (2)  14:00-14:00-  1270.6 73123mNFRSarupathar Road Thana Rd, Assam
5.6|--|NJNNaojan (1)  14:07-14:07-  1279.0 73128mNFRNo.1 Kori Gaon, Assam
5.7|--|CJAChongajan  14:13-14:13-  1286.6 73133mNFRNaojan Crossing Gate Road, Assam
5.8|--|BXJBokajan (2)  14:18-14:18-  1292.7 73138mNFRBokajan, Assam
5.9|--|KHKTKhotkhoti  14:25-14:25-  1301.0 73145mNFRKhotkhoti Railway Station, Assam
6|--|DMVDimapur (3)  14:35 14:30+1:1314:40 14:35+1:145m--1306.960153mNFRDimapur, Nagaland
6.1|--|RXRXRangapahar Crossing  14:39-14:39-  1311.2 60152mNFRArmy Supply Road, Nagaland
6.2|--|RXRRangapahar  14:41-14:41-  1313.2 60159mNFRRangapahar, Nagaland
6.3|--|DSRDhansiri  14:53-14:53-  1325.5 60179mNFRDhansiri, Assam
6.4|--|DLDEDaldali  15:02-15:02-  1334.1 60194mNFRDiphu, Assam
7|--|DPUDiphu (2)  15:16 15:12+1:1515:17 15:14+1:151 2m--1344.238180mNFRDiphu, Assam
7.1|--|NLNNailalung  15:29-15:29-  1353.4 38222mNFRTV Centre Road, Assam
7.2|--|LCTLangcholiet  15:44-15:44-  1363.0 38165mNFRTV Centre Road, Assam
7.3|--|BRLFBar Langfer  15:54-15:54-  1369.6 38154mNFRDist: Karbi Anglong, Assam
8|-=!LMGLumding Junction (5)X  16:05+1:0716:15+1:0910m--1376.354142mNFRLumding, Assam
8.1!==!LMGSLumding South  16:17-16:17-  1378.0 54133mNFRLumding South, Assam
8.2!==!PKBPatharkhola S  16:25-16:25-  1384.9 54124mNFRNH54, Assam
8.3!==!LKGLamsakhang  16:31-16:31-  1390.9 54106mNFRLamsakhan Rd, Assam
8.4!==!HWXHabaipur  16:43-16:43-  1401.5 5493mNFRStation Rd, Assam
8.5!==!LKALanka (2)  16:50-16:50-  1407.5 5489mNFRLanka, Assam
8.6!==!DHRYDhalpukhuriX  16:58-16:58-  1414.8 5484mNFRHojai Rd, Assam
8.7!=-|HJIHojai (2)  17:05-17:05-  1421.5 5478mNFRHojai Rd. Ph:- 03674-252136., Assam
8.8|--|JGJNJugijanX  17:12-17:12-  1428.0 5473mNFRNational Highway 36, Assam
8.9|--|JMKJamunamukh  17:23-17:23-  1438.0 5470mNFRNational Highway 36, Assam
8.10|--|KWMKampur  17:35-17:35-  1448.8 5468mNFRKampur, Assam
8.11|--|LPNLaopaniX  17:44-17:44-  1457.2 5463mNFRNiz-Jarabari, Assam
8.12|--|CPKChaparmukh Junction (3)X  17:54-17:54-  1466.0 5465mNFRChaparmukh. Dist. Nagaon. Changing point for HBN/SHTT, Assam
8.13|--|TGEThekeraguri  18:03-18:03-  1474.0 5462mNFRMorakolong, Assam
8.14|--|DMLDharamtul  18:11-18:11-  1481.3 5459mNFRDharamtul, Assam
8.15|--|SNBRSonuabary  18:18-18:18-  1487.2 5457mNFRBhalukaguri, Assam
8.16|--|AJREAujari  18:24-18:24-  1492.5 54 NFRJagiroad, Assam
8.17|--|JIDJagi Road (2)  18:32-18:32-  1500.0 5462mNFRJagiroad, Assam
8.18|--|BRHUBarahuX  18:38-18:38-  1505.9 5459mNFRGuripathar, Assam
8.19|--|KKETKamrup KhetriO  18:45-18:45-  1511.8 5462mNFRKhetri, Assam
8.20|--|TTLATeteliaX  18:52-18:52-  1517.9 5459mNFRHelagog, Assam
8.21|-=|DGUDigaru  18:58-18:58-  1523.5 5458mNFRDigaru, Assam
8.22|==|PNBPanbari (2)  19:06-19:06-  1530.7 5458mNFRBurha Mayang Par, Assam
8.23|==|TKCThakurkuchi (2)  19:14-19:14-  1537.9 5454mNFRHatisila, Assam
8.24|==|PHIPanikhaiti (2)  19:20-19:20-  1543.2 5459mNFRChandrapur Rd, Assam
8.25|==|NNGENarangi (2)  19:26-19:26-  1548.5 5458mNFRPanikhaiti, Assam
8.26|==|NMYNoonmatiX  19:29-19:29-  1551.4 5461mNFRGuwahati, Assam
8.27|==|NGCNew Guwahati  19:30-19:30-  1552.9 5461mNFRGuwahati, Assam
9|==|GHYGuwahati (7)  19:45 19:35+1:3620:00+1:3215 25m--1557.16460mNFRGuwahati, Assam
9.1|=-|KYQKamakhya Junction (4)  20:07-20:07-  1564.0 6455mNFRDist - KAMRUP, Assam
9.2|--|AGTAgthoriX  20:13-20:13-  1570.9 6450mNFRGuwahati, Assam
9.3|--|CGSChangsari  20:21-20:21-  1578.9 6454mNFRChangsari, Assam
9.4|--|BIZBaihata  20:30-20:30-  1589.3 6456mNFRKamrup, Assam
9.5|--|KDKNKendukana  20:35-20:35-  1594.6 6455mNFRNational HIghway 31, Assam
10|--|RNYRangiya Junction (5)•  20:50 20:45+2:1721:00 20:55+2:1410m--1604.74558mNFRRangia, Assam
10.1|--|GOEGhograpur  21:05-21:05-  1612.5 4555mNFRNational HIghway 31, Assam
10.2|--|NLVNalbari  21:17-21:17-  1621.2 4554mNFRNalbari, Assam
10.3|--|KTCHKaithalkuchi  21:30-21:30-  1631.3 4550mNFRNational HIghway 31, Assam
10.4|--|TIHUTihu  21:40-21:40-  1638.8 4550mNFRBarpeta, Assam
10.5|--|NSRHNiz Sariha Halt  21:47-21:47-  1643.7 4549mNFRBarpeta, Assam
10.6|--|PBLPathsala  21:53-21:53-  1648.3 4547mNFRPathsala Town, Assam
10.7|--|SPQSorupeta  22:06-22:06-  1658.3 4547mNFRBarpeta, Assam
10.8|--|GSAGuagachha  22:14-22:14-  1664.2 4545mNFRBorpeta, Assam
10.9|--|BPRDBarpeta Road  22:21-22:21-  1669.6 4549mNFRHowli, Assam
10.10|--|SBESorbhog Junction (3)  22:32-22:32-  1677.4 4551mNFRDist: Barpeta, Assam
10.11|--|PTLDPatiladaha  22:44-22:44-  1686.3 4549mNFRNational HIghway 31, Assam
10.12|--|BJFBijni  22:57-22:57-  1696.5 4554mNFRDist: Chirang, Assam
10.13|--|CPQChaprakata  23:10-23:10-  1705.9 4556mNFRNational Highway 31C, Assam
10.14|--|BNGNBongaigaon (3)  23:17-23:17-  1711.2 4560mNFRBongaigaon, Assam
11|-=|NBQNew Bongaigaon Junction (4)X  23:20+1:4023:30+1:4010m--1713.66458mNFR783381., Assam
11.1|==|NBQYNew Bongaigaon Yard  23:33-23:33-  1717.0 6458mNFRBongaigaon, Assam
11.2|==|DTXDangtal  23:34-23:34-  1718.0 6456mNFRNational Highway 31C, Assam
11.3|==|BSGNBasugaon (2)  23:41-23:41-  1725.5 6455mNFRNational Highway 31C, Assam
11.4|==|SLKXSalakatiX  23:47-23:47-  1732.1 6453mNFRNational Highway 31C, Assam
12|==|KOJKokrajhar (3)  23:57 23:56+1:5223:58+1:521 2m--1741.58846mNFR03661-270618, Assam
12.1|==|FKMFakiragram Junction (4)  00:05-00:05-  2751.4 8844mNFR03661-283454, Assam
12.2|==|CROAChautara (3)X  00:12-00:12-  2762.6 8844mNFRChautara, Assam
12.3|==|GOGHGossaigaon Hat (3)  00:21-00:21-  2774.7 88 NFRKokrajhar, Assam
12.4|==|SRPBSrirampur Assam (2)  00:26-00:26-  2781.9 8850mNFRDist - Dhubri, Assam
12.5|==|JOQJorai (3)X  00:33-00:33-  2792.0 8853mNFRDist - Coachbehar, West Bengal
12.6|==|KAMGKamakhyaguri (3)  00:38-00:38-  2800.2 8853mNFRdist : Alipurduar, West Bengal
12.7|==!SMTASamuktala Road (3)  00:45-00:45-  2809.8 8848mNFRdist : Alipurduar, West Bengal
12.8!==!SLBSSalsala BariX  00:48-00:48-  2815.2 8850mNFRDist : ALIPURDUAR, West Bengal
13!==!NOQNew Alipurduar (2)  00:53 00:52+2:0200:58 00:57+2:015m--2820.34548mNFRDist - Alipurduar - 736121, West Bengal
13.1!==!NBSNew Baneswar (2)  01:12-01:12-  2831.2 4544mNFRDist - Coachbehar, West Bengal
14!==!NCBNew Cooch Behar Junction (5)  01:25 01:22+2:0001:30 01:27+2:005m--2839.05747mNFRDist : Cooch Behar-736101, West Bengal
14.1!==!PQZPundibari (1)  01:38-01:38-  2849.1 5753mNFRDist - Coochbehar, West Bengal
14.2!==!SJRRSajherpar (2)  01:42-01:42-  2853.6 5754mNFRDist : Cooch Behar, West Bengal
14.3!==!GDXGhoksadanga (2)  01:50-01:50-  2861.1 5758mNFRDist : Cooch Behar, West Bengal
14.4!==!GUZGumanihat (2)  01:56-01:56-  2866.4 5760mNFRDist : Cooch Behar, West Bengal
14.5!=-|GMZGumanihat (2)X  01:56-01:56-  2866.4 5760mNFRDist : Coachbehar, West Bengal
14.6|--|FLKFalakata (3)  02:07-02:07-  2876.8 5767mNFRDist - Alipurduar, West Bengal
14.7|--|SXXSalbari (2)  02:17-02:17-  2885.8 5769mNFRDist - jalpaiguri, West Bengal
14.8|--|KLGRKolai Gram (2)  02:24-02:24-  2892.4 5775mNFRDist : Jalpaiguri, West Bengal
14.9|--|DQGDhupguri (2)  02:31-02:31-  2899.2 5775mNFRDist - Jalpaiguri, West Bengal
14.10|--|ATMAltagram (2)  02:38-02:38-  2905.9 5785mNFRDist - Jalpaiguri, West Bengal
14.11|--|BYXABetgara (2)  02:47-02:47-  2914.6 5789mNFRDIST - Jalpaiguri, West Bengal
14.12|--|NMXNew Maynaguri (2)X  02:52-02:52-  2919.4 5786mNFRDist - Jalpaiguri, West Bengal
14.13|--|NQHNew Domohani (2)  02:56-02:56-  2923.3 5784mNFRDist - Jalpaiguri, West Bengal
14.14|--|JPEJalpaiguri Road (2)  03:04-03:04-  2931.0 5789mNFRdist - Jalpaiguri 735102, West Bengal
14.15|-=!RQJRaninagar Jalpaiguri Junction (3)  03:12-03:12-  2938.1 5791mNFRDIST - Jalpaiguri, West Bengal
14.16!==|BLKBelakoba (2)X  03:21-03:21-  2946.4 5799mNFRDist - jalpaiguri, West Bengal
14.17|==|ABFCAmbari Falakata (2)  03:31-03:31-  2955.8 57105mNFRdist - jalpaiguri 735201, West Bengal
15|==%NJPNew Jalpaiguri Junction (8)  03:40+1:3703:55+1:3715m32964.581114mNFRCity-Siliguri . Dist-Jalpaiguri, West Bengal
15.1%==%RNIRangapani (2)  04:01-04:01-  2971.9 81114mNFRSILIGURI Dist - Darjeeling, West Bengal
15.2%==%NJBNijbari (2)  04:06-04:06-  2978.8 81104mNFRFulbari Ghoshpukur Bypass, West Bengal
15.3%==%CATChattar Hat (2)X  04:11-04:11-  2985.9 8191mNFRChattar, West Bengal
15.4%==%DMZDumdangi (2)  04:18-04:18-  2995.0 8186mNFRHaftia Rd, West Bengal
15.5%==%TMHTin Mile Hat (2)  04:24-04:24-  21003.8 8174mNFRTin Mile, West Bengal
15.6%==%MXJMangurjan (2)  04:29-04:29-  21010.0 8169mNFRMangurjan, West Bengal
15.7%==%DBQDhulabari (2)  04:34-04:34-  21016.4 8168mNFRKishanganj, Bihar
15.8%==%AUBAluabari Road (2)  04:37-04:37-  21021.2 810mNFRDist - uttar Dinajpur, West Bengal
15.9%==%GEORGunjariaX  04:43-04:43-  21029.2 8164mNFRNational Highway 31, West Bengal
15.10%==%GILGaisal (3)  04:47-04:47-  21034.9 8162mNFRNational Highway 31, West Bengal
15.11%==%PJPPanjipara (3)X  04:54-04:54-  21043.6 8155mNFRNational Highway 31, West Bengal
16%==%KNEKishanGanj (3)  05:01 05:00+2:0505:03 05:02+2:052m--21051.84252mNFRKishanganj, Bihar
16.1%==%THEDTauheed  05:05-05:05-  21054.0 4252mNFRKishanganj, West Bengal
16.2%==%HWRHatwar (2)  05:14-05:14-  21060.2 4246mNFRNational Highway 31, West Bengal
16.3%==%KKAKanki (3)X  05:22-05:22-  21065.6 4247mNFRKanki, West Bengal
16.4%==%SJKLSurja Kamal (2)  05:33-05:33-  21073.3 4244mNFRNational Highway 31, West Bengal
16.5%==%DLKDalkhola (3)X  05:43-05:43-  21080.3 4244mNFRDalkola, West Bengal
16.6%==%TETATelta (2)  05:55-05:55-  21088.5 4240mNFRRupauli, Bihar
16.7%==%AHLAjharailX  05:59-05:59-  21091.3 4237mNFRNational Highway 34, West Bengal
16.8%==%SUDSudhani (2)  06:08-06:08-  21097.5 4238mNFRState Highway 65, Bihar
16.9%==%SJGMSanjay Gram  06:12-06:12-  21100.9 4234mNFRSanjay Gram, West Bengal
16.10%--%BOEBarsoi Junction (3)X  06:25-06:25-  21109.4 4237mNFRdist- katihar, Bihar
16.11%--%MFAMukuria Junction (2)  06:31-06:31-  21113.7 4232mNFRMukuria, Bihar
16.12%--%SRISalmari (2)  06:38-06:38-  21118.9 4236mNFRSalmari, Bihar
16.13%--%MENPMeenapur (1)X  06:43-06:43-  21122.5 4238mNFRMeenapur, Bihar
16.14%--%JAUJhaua (1)  06:47-06:47-  21125.2 4235mNFRJhaua, Bihar
16.15%--%BHNPBishanpur Halt (1)X  06:52-06:52-  21128.2 4234mNFRKATIHAR, Bihar
16.16%--%SISonalli (2)  06:56-06:56-  21131.3 4235mNFRSonalli, Bihar
16.17%--%GRRGorphar (1)  07:03-07:03-  21136.4 4234mNFRGorphar Halt, Bihar
16.18%--%DNQDandkhora (2)  07:08-07:08-  21139.6 4234mNFRph- 06452-252274, Bihar
16.19%--%NYTNayatola (1)  07:14-07:14-  21143.8 4234mNFRKatihar, Bihar
17%--%KIRKatihar Junction (7)XO  07:20+1:3707:30+1:3510m221148.07235mNFRKatihar 854105, Bihar
17.1%-=%SMOSemapur  07:40-07:40-  21159.6 7235mECRKatihar, Bihar
17.2%==%CRRKaragola Road  07:49-07:49-  21170.3 7236mECRLachhmipur, Bihar
17.3%==%BRZRBarari Bazar  07:51-07:51-  21173.1 7234mECRMarghia, Bihar
17.4%==%BKHRBakhri  07:53-07:53-  21175.8 7235mECRBakhri, Bihar
17.5%=-%KUEKurselaX  08:03-08:03-  21187.3 7231mECRNH 31, Bihar
17.6%-=%KTRHKatareahX  08:09-08:09-  21194.7 720mECRKumadpur, Bihar
18%==%NNANaugachia (3)  08:30 08:18+2:0308:31 08:20+2:031 2m221205.86137mECRBhagalpur, Bihar
18.1%==%KHQKharik (3)  08:28-08:28-  21213.7 6138mECRKharik, Bihar
18.2%==%BIGHBagrigram Halt (1)  08:31-08:31-  21216.8 6138mECRBagri, Bihar
18.3%==%THBThana Bihpur Junction (3)  08:36-08:36-  21221.7 6139mECRThana Bihpur, Bihar
18.4%==%NNRNarayanpur (2)  08:43-08:43-  21229.3 6139mECRNarayanpur, Bihar
18.5%==%BRKBBharat Khand (1)  08:49-08:49-  21234.7 6134mECRBharat Khand, Bihar
18.6%==%BRKDBharat Khand  08:49-08:49-  21234.8 6135mECRNational Highway 31, Bihar
18.7%==%PSRPasraha (3)  08:55-08:55-  21240.9 6141mECRPasraha, Bihar
18.8%==%GAIGauchhari (3)  09:03-09:03-  21249.2 6140mECRGauchhari, Bihar
18.9%==%MSKMahes Khunt (2)X  09:07-09:07-  21253.3 6137mECRMaheshkhunt, Bihar
18.10%==%CDBNChedhabanni Halt (2)  09:12-09:12-  21258.9 6142mECRChedhabanni, Bihar
18.11%==%MNEMansi Junction (4)  09:17-09:17-  21263.7 6143mECRMansi, Bihar
19%==%KGGKhagaria Junction (3)X  09:41 09:26+2:1209:42 09:28+2:131 2m--21272.74043mECRKhagaria, Bihar
19.1%==%UMNRUmeshnagar (3)  09:38-09:38-  21279.6 4041mECRNational Highway 31, Bihar
19.2%==%SKJSahibpur Kamal Junction (2)  09:46-09:46-  21285.1 4041mECRShahpur Kamal, Bihar
19.3%==%SANHSanha Halt (2)X  09:52-09:52-  21288.6 4042mECRSanha, Bihar
19.4%==%LKNLakhminia (3)X  10:01-10:01-  21294.8 4045mECRBegusarai, Bihar
19.5%==%DPLDanauli Phulwaria (3)  10:09-10:09-  21300.1 4042mECRDanauli Phlwria, Bihar
19.6%==%LAKLakho (1)  10:16-10:16-  21305.2 4044mECRLakho, Bihar
19.7%==%BGSBegusarai (3)  10:27-10:27-  21312.6 4046mECRBegusarai, Bihar
19.8%==%SHHTSinghaul Halt (2)  10:33-10:33-  21316.4 4048mECRBegusarai, Bihar
19.9%==%TILTilrath (2)X  10:37-10:37-  21319.4 4046mECRNH 31, Bihar
19.10%==%BEHTBihat Halt (2)  10:43-10:43-  21323.2 4046mECRBihat Halt, Bihar
20%==%BJUBarauni Junction (9)  10:50+1:5911:00+2:0110m--21327.95749mECRBegusarai, Bihar
20.1/==/BUJBarauni Flag (2)X  11:03-11:03-  21330.6 5749mECRDistt: Begusarai, Bihar
20.2/==/TGATeghra (3)X  11:08-11:08-  21335.3 5748mECRBegusarai, Bihar
20.3/==/BCABachwara Junction (3)  11:17-11:17-  21344.3 5749mECRBegusarai, Bihar
20.4/==/STJTSathajagat (2)  11:24-11:24-  21350.7 5749mECRSathajagat, Bihar
20.5/==/DSSDalsingh Sarai (2)  11:29-11:29-  21355.3 57 ECR06278-221238, Bihar
20.6/==/BSRABasarhia Halt (2)  11:33-11:33-  21359.5 5752mECRBasaria, Bihar
20.7/==/NAZJNazirGanj (2)  11:37-11:37-  21363.1 5751mECRNazirGanj, Bihar
20.8/==/UJPUjiarpur (2)  11:44-11:44-  21369.4 5751mECRSamastipur, Bihar
20.9/==/BLRIBelari Halt  11:48-11:48-  21373.9 5751mECRMalti, Bihar
21/==/SPJSamastipur Junction (9)  11:55 11:53+2:1212:00+2:155 7m--21378.55955mECRSamastipur, Bihar
21.1/==/KPGMKarpurigram (3)X  12:06-12:06-  21384.7 5951mECRState Highway 49, Bihar
21.2/==/KRBPKhudiram B Pusa (2)  12:14-12:14-  21392.1 5952mECRDistt. Samastipur, Bihar
21.3/==/VBHVishnupur Bathua Halt  12:18-12:18-  21395.8 5955mECRTajpur - Garhia - Pusa Road, Bihar
21.4/==/DUBHDubaha (2)  12:21-12:21-  21399.4 5955mECRDubha Station, Bihar
21.5/==/DOLDholi (2)  12:27-12:27-  21405.5 59 ECRDistt. Muzaffarpur, Bihar
21.6/==/SIHOSiho (2)  12:34-12:34-  21412.3 5953mECRNational Highway 28, Bihar
21.7/==/SLTSilaut (2)X  12:42-12:42-  21420.1 5957mECRMuzaffarpur, Bihar
21.8/==/NRPANarayanpur Anant (3)  12:48-12:48-  21425.8 5956mECRMuzaffarpur, Bihar
22/==/MFPMuzaffarpur Junction (6)  12:48 12:53+2:1512:53 12:58+2:175m321430.65757mECRMuzaffarpur, Bihar
22.1%=-/RDRam Dayalu Nagar (3)  13:04-13:04-  21436.6 5756mECRMuzaffarpur, Bihar
22.2/--/TURTurki (2)  13:13-13:13-  21444.3 5755mECRTurki, Bihar
22.3/--/KHIKurhani (2)  13:19-13:19-  21450.7 5756mECRKurhani, Bihar
22.4/--/GRLGoraul (2)X  13:25-13:25-  21456.5 5757mECRVAISHALI, Bihar
22.5/--/BNPTBenipatti Pirapur (1)  13:27-13:27-  21458.4 5755mECRGhojaul Rd, Bihar
22.6/--/BNRBhagwanpur (2)X  13:34-13:34-  21464.8 5760mECRBhagwanpur, Bihar
22.7/--/BTHLBithauli (1)O  13:39-13:39-  21469.4 5758mECRVaishali, Bihar
22.8/--/SAISarai (1)  13:44-13:44-  21473.8 5754mECRVaishali, Bihar
22.9/--/GWHGhoshawar (1)  13:50-13:50-  21479.9 5754mECRDaulatpur Deoria urf Daulatpur, Bihar
23/-=/HJPHajipur Junction (3)X  13:49 13:55+3:0413:50 13:57+3:111 2m--21484.43355mECR06224-272230, Bihar
24/==/SEESonpur Junction (4)X  14:00 14:07+3:1214:05 14:12+3:115m--21489.94256mECRSaran, Bihar
24.1/==/PMUParmanandpur (2)X  14:22-14:22-  21496.6 4256mECRNational Highway 19, Bihar
24.2/==/NYONayagaon (2)  14:28-14:28-  21501.2 4253mECRNayagaon Sarai, Bihar
24.3/==/STLRSitalpur (2)  14:39-14:39-  21508.9 4257mECRSitalpur, Bihar
24.4/==/DGADighwara (2)X  14:45-14:45-  21513.1 4260mECR06158-281240, Bihar
24.5/==/AABHAmbika Bhawani Halt (1)  14:51-14:51-  21517.0 4259mECRNH 19, Bihar
24.6/==/ATNRAwatarnagar (2)  14:54-14:54-  21518.9 4256mECRNH 19, Bihar
24.7/==/PPDAPanchpatia Deoria Halt (1)  14:57-14:57-  21521.1 4257mECRNH 19, Bihar
24.8/==/BAGLBaragopal (2)  15:01-15:01-  21523.9 4257mECRSH 46, Bihar
24.9/==/DRIDumri Juara (2)  15:07-15:07-  21528.0 4257mECRSaran, Bihar
24.10/==/GJHGoldinganj (2)X  15:14-15:14-  21532.8 4258mECRChapra Patna Highway, Bihar
24.11/==/CIChhapra Kacheri (3)  15:27-15:27-  21541.8 4257mNERChhapra, Bihar
25/==/CPRChhapra Junction (6)  15:30+2:5315:45+2:5015m--21544.08258mNERDistt: Saran, Bihar
25.1%==%TKVRTeknewas (2)  15:48-15:48-  21548.3 8258mNERSaran, Bihar
25.2%==%KPSKopa Samhota (2)  15:53-15:53-  21554.6 8269mNERKopa Samhota Station Rd, Bihar
25.3%==%DDPDaudpur (2)  15:59-15:59-  21563.3 8259mNERChhapra, Bihar
25.4%==%EKMAEkma (3)X  16:06-16:06-  21571.9 8264mNERSaran, Bihar
25.5%==%MHRNMahendranath Halt (2)  16:09-16:09-  21577.2 8263mNERMahendrana, Uttar Pradesh
25.6%==%CWChainwa (2)X  16:11-16:11-  21579.2 8263mNERSiwan, Bihar
25.7%==%DDADuraundha Junction (3)  16:17-16:17-  21587.4 8264mNERDistt: Siwan, Bihar
25.8%==%PCKPachrukhi (2)  16:24-16:24-  21596.9 8267mNERPachrukhi, Bihar
26%==%SVSiwan Junction (4)  16:30+3:0316:35+3:035m--21605.25270mNERSiwan, Bihar
26.1%==%ZRDEJiradei (2)  16:47-16:47-  21615.5 5269mNERSiwan, Bihar
26.2%==%KYWKarchhue  16:53-16:53-  21621.0 5270mNERState Highway 47, Bihar
26.3%==%MWMairwa (2)  17:00-17:00-  21626.5 5273mNERMairwa, Bihar
26.4%==%BTKBankata (2)  17:07-17:07-  21633.0 5273mNERDeoria, Uttar Pradesh
26.5%==%BHTRBhatpar Rani (2)  17:16-17:16-  21641.1 5273mNERDeoria, Uttar Pradesh
26.6%==%NNPRNonapar  17:26-17:26-  21649.2 5276mNERSalempur Mairwa Rd, Uttar Pradesh
26.7%==%BTTBhatni Junction (5)X  17:31-17:31-  21653.9 5273mNERDeoria, Uttar Pradesh
26.8%==%NRANunkhar (2)  17:40-17:40-  21661.2 5275mNERBaikunthpur, Uttar Pradesh
26.9%==%AHLRAhalyapur  17:48-17:48-  21668.6 5281mNERDeoria, Uttar Pradesh
27%==%DEOSDeoria Sadar (3)  17:49 17:55+2:5917:50 18:00+3:001 5m--21674.73379mNERDeoria- 274001, Uttar Pradesh
27.1%==%BALRBaitalpur (2)X  18:12-18:12-  21681.3 3382mNERPin- 274201, Uttar Pradesh
27.2%==%GBGauri Bazar (2)  18:28-18:28-  21689.7 3382mNERDistrict Deoria- Pincode- 274202, Uttar Pradesh
27.3%==%CCChauri Chaura (2)X  18:45-18:45-  21699.4 3384mNERGorakhpur- PinCode:- 273201, Uttar Pradesh
27.4%==%SANRSardarnagarO  18:55-18:55-  21704.7 3382mNERGorakhpur-Deoria Road, Uttar Pradesh
27.5%==%KHMKusmhi (2)  19:06-19:06-  21710.7 3383mNERGorakhpur, Uttar Pradesh
27.6%==%GKCGorakhpur Cantt. (3)  19:23-19:23-  21720.1 3385mNERGorakhpur-273001, Uttar Pradesh
28%==%GKPGorakhpur Junction (10)  19:30+2:3519:45+2:3815m121723.84384mNERGorakhpur 273001, Uttar Pradesh
28.1%==%DMGDomingarh (2)X  19:51-19:51-  21727.9 4380mNERGorakhpur- 273004, Uttar Pradesh
28.2%==%JTBJagatbela (2)  20:00-20:00-  21734.6 4378mNERDistt Gorakhpur- 273015, Uttar Pradesh
28.3%==%SWASahjanwa (2)  20:09-20:09-  21741.0 4380mNERGorakhpur - 273209, Uttar Pradesh
28.4%==%SIPRSihapar Halt (2)X  20:16-20:16-  21745.9 4380mNERGorakhpur, Uttar Pradesh
28.5%==%MHHMaghar (3)  20:20-20:20-  21749.2 4383mNERNH 28. Distt- SantKabirNagar- 272173, Uttar Pradesh
28.6%==%KLDKhalilabad (3)X  20:32-20:32-  21757.7 4386mNERKhalilabad- 272175, Uttar Pradesh
28.7%==%CRVChureb (2)  20:43-20:43-  21765.5 4388mNERDistrict- Khalilabad, Uttar Pradesh
28.8%==%MNDMunderwa (2)O  20:53-20:53-  21773.0 4389mNERNational Highway 28, Uttar Pradesh
28.9%==%ORWOrwara (2)  21:02-21:02-  21779.6 4391mNERDistrict- BASTI, Uttar Pradesh
28.10%==%BSTBasti (4)  21:13-21:13-  21787.3 4390mNERBasti 272001, Uttar Pradesh
28.11%==%GOVRGovindnagar (2)  21:22-21:22-  21793.6 4393mNERPin-272002, Uttar Pradesh
28.12%==%THTinich (2)X  21:33-21:33-  21802.0 4395mNERDistrict- Basti, Uttar Pradesh
28.13%==%GAURGaur (2)  21:44-21:44-  21810.2 4396mNERDistrict-Basti, Uttar Pradesh
28.14%==%BVBabhnan (2)  21:55-21:55-  21818.1 43101mNERDistrict- Basti, Uttar Pradesh
28.15%==%PATIParsa Tiwari (2)X  22:03-22:03-  21823.6 4398mNERChhapaiya Rd, Uttar Pradesh
28.16%==%BNGYBahman Jyotia (2)  22:06-22:06-  21826.2 43100mNERGonda, Uttar Pradesh
28.17%==%SNCSwami Narayan Chhapia (2)  22:11-22:11-  21829.4 43100mNERS Narayan Chpla, Uttar Pradesh
28.18%==%MSWMaskanwa (2)  22:17-22:17-  21833.8 43103mNERChhapaiya Rd, Uttar Pradesh
28.19%==%LKNRLakhpat Nagar (2)  22:29-22:29-  21842.6 43102mNERMankapur, Uttar Pradesh
28.20%==%MURMankapur Junction (5)  22:36-22:36-  21847.8 43104mNERDistrict Gonda, Uttar Pradesh
28.21%==%JLHIJhilahi (2)  22:45-22:45-  21854.4 43102mNERSH 9, Uttar Pradesh
28.22%==%MOTGMotiganj  22:54-22:54-  21860.7 43111mNERGonda, Uttar Pradesh
28.23%==%BRCKBarua Chak (2)X  23:04-23:04-  21868.0 43107mNERBaruachak, Uttar Pradesh
29%==/GDGonda Junction (3)  23:10 23:15+2:0423:20+2:1010 5m121875.746110mNERGonda 271001, Uttar Pradesh
29.1/==/GDKGonda Kachahri (3)  23:26-23:26-  21880.6 46110mNERGonda, Uttar Pradesh
29.2/==/KTHLKathola (2)  23:36-23:36-  21887.5 46106mNERGonda, Uttar Pradesh
29.3/==/MIRMaijapur (2)X  23:43-23:43-  21893.3 46108mNERGonda, Uttar Pradesh
29.4/==/KSRKasturi (2)X  23:50-23:50-  21898.8 46108mNERkasturi Gonda, Uttar Pradesh
29.5/==/CLJColonelGanj (2)  23:58-23:58-  21904.6 46108mNERGonda, Uttar Pradesh
29.6/==/SUJSarju (2)X  00:08-00:08-  31912.3 46109mNERGonda, Uttar Pradesh
29.7/==/JLDJarwal Road (2)  00:21-00:21-  31921.8 46112mNERBehraich, Uttar Pradesh
29.8/==/GHTGhaghara Ghat (2)X  00:26-00:26-  31926.0 46107mNERBahraich, Uttar Pradesh
29.9/==/CKGChowka Ghat (2)X  00:33-00:33-  31931.6 46107mNERBarabanki, Uttar Pradesh
29.10/==/BUWBurhwal Junction (3)  00:42-00:42-  31937.9 46119mNERBarabanki, Uttar Pradesh
29.11/==/BURBindaura (2)  00:54-00:54-  31947.5 46125mNERbarabanki, Uttar Pradesh
29.12/==/RFRRafinagar (2)  00:59-00:59-  31950.8 46124mNERbarabanki, Uttar Pradesh
29.13/==/JBRJahangirabad Rj (2)  01:07-01:07-  31956.8 46125mNERJahangirabad, Uttar Pradesh
29.14/==/BBKBarabanki Junction (4)X  01:17-01:17-  31965.0 46122mNRPin-225001, Uttar Pradesh
29.15/==/SFHSafedabad (3)X  01:27-01:27-  31972.6 46120mNRBarabanki, Uttar Pradesh
29.16/==/JRRJugaur (1)  01:32-01:32-  31976.0 46123mNRCanal Rd, Uttar Pradesh
29.17/==/MLMalhaur (3)  01:39-01:39-  31981.6 46121mNRLucknow, Uttar Pradesh
30/==/LKOLucknow Charbagh NR (9)XO  01:50 01:55+1:3802:00 02:05+1:3810m531993.665123mNR226004, Uttar Pradesh
30.1/==/LNWTLucknow West  02:07-02:07-  31995.2 65123mNRLucknow, Uttar Pradesh
30.2/==/AMGAlamnagar (3)X  02:11-02:11-  32000.6 65126mNRLucknow, Uttar Pradesh
30.3/==/KKJKakori (3)  02:18-02:18-  32008.1 65129mNRSH 25, Uttar Pradesh
30.4/==/MLDMalihabad  02:27-02:27-  32017.8 65130mNRMalihabad, Uttar Pradesh
30.5/==/DILDilawarnagarX  02:33-02:33-  32023.4 65133mNRSH 25, Uttar Pradesh
30.6/==/RBDRahimabadX  02:40-02:40-  32031.0 65132mNRSH 25, Uttar Pradesh
30.7/==/SANSandila (3)  02:50-02:50-  32042.1 65132mNRSandila, Uttar Pradesh
30.8/==/UTAUmar TaliX  02:55-02:55-  32047.3 65135mNRHardoi, Uttar Pradesh
30.9/==/DLQDalelnagarX  03:00-03:00-  32053.7 65136mNRSH 25, Uttar Pradesh
30.10/==/BLMBalamau Junction (4)X  03:08-03:08-  32062.4 65139mNRBalamau, Uttar Pradesh
30.11/==/BGHBaghauliX  03:17-03:17-  32071.1 65141mNRsharda nehar, Uttar Pradesh
30.12/==/MSTMasit  03:23-03:23-  32078.1 65141mNRSH 25, Uttar Pradesh
30.13/==/KARKarna  03:30-03:30-  32085.6 65143mNRHardoi, Uttar Pradesh
30.14/==/HRIHardoi (5)X  03:39-03:39-  32095.4 65146mNRHardoi, Uttar Pradesh
30.15/==/KUFKaurhaX  03:47-03:47-  32103.8 65148mNRSH 25, Uttar Pradesh
30.16/==/BEGBehtagokulX  03:55-03:55-  32112.7 65152mNRBehtagokul, Uttar Pradesh
30.17/==/TDPTodarpur  04:01-04:01-  32119.1 65147mNRSH 25, Uttar Pradesh
30.18/==/SHRMSharmaX  04:03-04:03-  32121.7 65150mNRSH 25, Uttar Pradesh
30.19/==/AJIAnjhi Shahabad  04:09-04:09-  32127.6 65148mNRAnjhi Shahabad, Uttar Pradesh
30.20/==/AIGAlgawanX  04:14-04:14-  32133.9 65152mNRAlgawan, Uttar Pradesh
30.21/==/KHKahiliya  04:22-04:22-  32142.4 65152mNRSH 25, Uttar Pradesh
30.22/==/PRPMPt Ram Prasad BismilXO  04:26-04:26-  32146.8 65154mNRState Highway 25, Uttar Pradesh
30.23/==/ROZARoza Junction (4)  04:30-04:30-  32151.0 65156mNRShahjahanpur, Uttar Pradesh
30.24/==/SXKShahjahanpur Court  04:36-04:36-  32157.4 65160mNRShahjahanpur, Uttar Pradesh
30.25/==/SPNShahjahanpur Junction (3)XO  04:37-04:37-  32158.4 65156mNRShahjahanpur, Uttar Pradesh
30.26/==/BTRABanthra  04:45-04:45-  32166.8 65154mNRNH 24, Uttar Pradesh
30.27/==/BHDHBahadurpur HaltX  04:50-04:50-  32172.4 65154mNRNH 24, Uttar Pradesh
30.28/==/TLHTilhar  04:54-04:54-  32176.6 65163mNRTilhar, Uttar Pradesh
30.29/==/MILAMilakpur Halt  04:57-04:57-  32180.2 65158mNRDhanela, Uttar Pradesh
30.30/==/MKMiranpur Katra  05:03-05:03-  32186.3 65162mNRShahjahanpur, Uttar Pradesh
30.31/==/KSRKKasrak HaltXO  05:03-05:03-  32186.5 65162mNRKatra, Uttar Pradesh
30.32/==/BLPUBilpurX  05:09-05:09-  32193.5 65161mNRFatehganj, Uttar Pradesh
30.33/==/TSATisuaX  05:16-05:16-  32200.5 65165mNRNational Highway 24, Uttar Pradesh
30.34/==/PMRPitambarpur  05:24-05:24-  32209.0 65171mNRPitambarpur, Uttar Pradesh
30.35/==/RYSRasuriyaX  05:32-05:32-  32218.5 65174mNRNH 24, Uttar Pradesh
30.36/==/CHTIChanehti Junction  05:39-05:39-  32225.1 65168mNRBareilly, Uttar Pradesh
31/==/BEBareilly Junction (4)X  05:45 05:42+2:1705:50 05:47+2:205m--32228.950174mNRBareilly, Uttar Pradesh
31.1/==/BCBareilly City (4)  05:50-05:50-  32231.4 50171mNERBareilly, Uttar Pradesh
31.2/==/CBJClutterbuckGanj  05:56-05:56-  32236.8 50172mNRBareilly, Uttar Pradesh
31.3/==/PKRAParsa KheraXO  06:02-06:02-  32241.8 50170mNRNH 24, Uttar Pradesh
31.4/==/BTOBhitaura  06:09-06:09-  32247.1 50173mNRFatehganj Pashchimi, Uttar Pradesh
31.5/==/DANDhanetaX  06:16-06:16-  32253.4 50174mNRNH 24, Uttar Pradesh
31.6/==/NRSNagaria Sadat  06:25-06:25-  32260.5 50177mNRNagaria Sadat, Uttar Pradesh
31.7/==/MILMilak  06:35-06:35-  32268.8 50180mNRMilak, Uttar Pradesh
31.8/==/DUNDuganpur  06:42-06:42-  32274.7 50180mNRNH 24, Uttar Pradesh
31.9/==/DAMDhamoraX  06:48-06:48-  32280.1 50183mNRNH 24, Uttar Pradesh
31.10/==/SARShahzad Nagar  06:55-06:55-  32285.5 50186mNRNH 24, Uttar Pradesh
31.11/==/RMURampur Junction (3)XO  07:02-07:02-  32291.9 50190mNRRampur, Uttar Pradesh
31.12/==/MPHMundha PandeX  07:13-07:13-  32300.6 50191mNRNH 24, Uttar Pradesh
31.13/==/DLPDalpatpur  07:20-07:20-  32307.0 50195mNRNH-24, Uttar Pradesh
31.14/==/KGFEKathghar East  07:29-07:29-  32313.9 50194mNRJama Masjid Bridge Road, Uttar Pradesh
31.15/==/KGFRKathghar Right BankX  07:29-07:29-  32314.2 50199mNRMoradabad, Uttar Pradesh
31.16/==/KGFKathghar  07:31-07:31-  32315.5 50199mNRMoradabad, Uttar Pradesh
32/==/MBMoradabad Junction (7)  07:35+2:1207:45+2:1310m--32319.259201mNRMoradabad, Uttar Pradesh
32.1/==/MBWCMoradabad West  07:46-07:46-  32320.0 59195mNRMoradabad West, Uttar Pradesh
32.2/==/HRHHarthala  07:50-07:50-  32324.6 59206mNRMoradabad, Uttar Pradesh
32.3/==/AWPAghwanpur  07:56-07:56-  32330.3 59212mNRMoradabad, Uttar Pradesh
32.4/==/MTBMatlabpur  08:06-08:06-  32340.0 59216mNRMoradabad, Uttar Pradesh
32.5/==/KNTKanthX  08:15-08:15-  32348.6 59221mNRKanth, Uttar Pradesh
32.6/==/MWEMewa Nawada  08:21-08:21-  32355.1 59221mNRSahaspur, Uttar Pradesh
32.7/==/SEOSeohara  08:31-08:31-  32365.2 59224mNRSeohara, Uttar Pradesh
32.8/==/CAJChakraj Mal  08:38-08:38-  32371.9 59229mNRNagina, Uttar Pradesh
32.9/==/DPRDhampurX  08:45-08:45-  32378.9 59236mNRDhampur, Uttar Pradesh
32.10/==/HBWHabibwalaX  08:51-08:51-  32384.2 59239mNRNagina, Uttar Pradesh
32.11/==/PNIPuraini  08:56-08:56-  32389.9 59246mNRDhampur, Uttar Pradesh
32.12/==/NGGNagina (3)  09:02-09:02-  32395.7 59247mNRNagina, Uttar Pradesh
32.13/==/BEKBundki  09:12-09:12-  32405.5 59255mNRNagina, Uttar Pradesh
32.14/==/MSDRMurshadpur  09:16-09:16-  32409.1 59258mNRNagina, Uttar Pradesh
32.15/==/NBDNajibabad Junction (3)O  09:25-09:25-  32418.2 59269mNRNajibabad, Uttar Pradesh
32.16/==/FZLFazalpur (2)  09:36-09:36-  32429.2 59256mNRState Highway 49, Uttar Pradesh
32.17/==/CNKChandok (2)  09:43-09:43-  32436.1 59257mNRChandok, Uttar Pradesh
32.18/==/BLWBalawali (2)  09:50-09:50-  32442.9 59242mNRNational Highway 119, Uttar Pradesh
32.19/==/RSIRaisi  09:56-09:56-  32448.6 59231mNRLaksar, Uttarakhand
32.20/==/LRJLaksar Junction (4)X  10:07-10:07-  32460.1 59238mNRLaksar, Uttarakhand
32.21/==/LRJCLaksar North Cabin  10:09-10:09-  32462.1 59238mNRMain Bazar Road, Uttarakhand
32.22/==/DSNIDausni (2)  10:12-10:12-  32465.1 59244mNRLaksar, Uttarakhand
32.23/==/LDRLandaura (2)  10:17-10:17-  32470.0 59261mNRHaridwar, Uttarakhand
32.24/==/DNRADhandhera (2)  10:22-10:22-  32475.1 59267mNRRoorkee - 247667, Uttarakhand
32.25/==/RKRoorkee (3)X  10:25-10:25-  32477.9 59264mNRRoorkee - 247667, Uttarakhand
32.26/==/IQBIqbalpurX  10:33-10:33-  32485.3 59267mNRNational Highway 73, Uttar Pradesh
32.27/==/CDLChodiala  10:39-10:39-  32491.9 59270mNRMDR 163W, Uttar Pradesh
32.28/==/SNKESunehti Kharkhari (2)O  10:45-10:45-  32497.5 59216mNRSunehti Kharkhr, Uttar Pradesh
32.29/==/BAEBaliakheriO  10:50-10:50-  32502.6 59274mNRSaharanpur, Uttar Pradesh
32.30/==/HNCHindan Cabin  10:54-10:54-  32506.4 59276mNRMDR 163W, Uttar Pradesh
33/==/SRESaharanpur Junction (6)O  10:40 11:00+2:4910:50 11:10+2:5110m432512.661276mNRSaharanpur, Uttar Pradesh
33.1/==/PKYPilkhani (2)X  11:18-11:18-  32520.3 61277mNRSaharanpur, Uttar Pradesh
33.2/==/SSWSarsawa (2)  11:23-11:23-  32525.8 61269mNRSaharanpur, Uttar Pradesh
33.3/==/KNZKalanour (2)X  11:33-11:33-  32536.2 61272mNRNational Highway 73, Haryana
33.4/==/JUDYamunanagar-Jagadhri (3)X  11:40-11:40-  32542.7 61275mNRYamunanagar, Haryana
33.5/==/JUDWJagadhri Workshop (2)  11:45-11:45-  32547.7 61280mNRRailway Workshop Road, Haryana
33.6/==/DZPDarazpur (2)  11:49-11:49-  32552.4 61276mNRYamunanagar, Haryana
33.7/==/MFBMustafabad (2)X  11:57-11:57-  32560.1 61281mNRNational Highway 73, Haryana
33.8/==/RAABarara (2)X  12:06-12:06-  32568.9 61279mNRBarara, Haryana
33.9/==/TDWTandwal (2)  12:11-12:11-  32574.3 61279mNRState Highway 31, Haryana
33.10/==/KESKesri (2)X  12:17-12:17-  32580.5 61275mNRAmbala, Haryana
33.11/==/DOKYDukheri (2)  12:23-12:23-  32586.4 61275mNRDevsthali Rd, Haryana
34/==/UMBAmbala Cantt. Junction (7)X  12:05 12:30+2:5112:10 12:42+2:505 12m132593.750278mNRAmbala 133001, Haryana
34.1%==%DKTDhulkot  12:51-12:51-  32601.6 50275mNRAmbala City, Haryana
34.2%==%LLULalruX  13:03-13:03-  32611.7 50282mNRLalru, Punjab
34.3%==%DHPRDappar (2)  13:22-13:22-  32627.2 50299mNRNational Highway 22, Punjab
34.4%==%GHGGhagghar (1)  13:24-13:24-  32629.2 50301mNRnear silver city. distt. mohali, Punjab
35/-=%CDGChandigarh Junction (6)  13:10 13:35+2:14-432638.3-334mNRDarua, Chandigarh
Scroll to Top
Scroll to Bottom